Tracking 31027 objects as of 19-Jul-2025
HD Live streaming from Space Station
objects crossing your sky now

STARLINK-32838

Track STARLINK-32838 now!
10-day predictions
STARLINK-32838 is classified as:


NORAD ID: 62827
Int'l Code: 2025-018X
Perigee: 453.5 km
Apogee: 455.4 km
Inclination: 53.2 °
Period: 93.5 minutes
Semi major axis: 6825 km
RCS: Unknown
Launch date: January 24, 2025
Source: United States (US)
Launch site: AIR FORCE WESTERN TEST RANGE (AFWTR)
Your satellite tracking list
STARLINK-32625
Track 1 satellite(s)




NASA's NSSDC Master Catalog

Two Line Element Set (TLE):
1 62827U 25018X   25199.52720282  .00031319  00000-0  79037-3 0  9991
2 62827  53.1573 281.6230 0001363  80.9597 279.1562 15.39595884 27811
Source of the keplerian elements: AFSPC